C/2021 T2 ( Fuls )

Japanese version
Home page
Updated on January 20, 2022

---------------------------------------------------------------------

* Profile

Discovery Date October 2, 2021
Magnitude 19.8 mag
Discoverer D. C. Fuls (Mt. Lemmon Survey)

* Pictures

* Orbital Elements

Epoch 2022 Jan. 21.0 TT = JDT 2459600.5
T 2022 June 7.89629 TT                                  Rudenko
q   1.2476177            (2000.0)            P               Q
z  -0.0001117      Peri.  263.59651     +0.39583578     -0.68873962
 +/-0.0000683      Node   223.23168     +0.11362960     -0.61962211
e   1.0001393      Incl.  117.52610     -0.91126415     -0.37643881
From 154 observations 2021 Oct. 2-Dec. 9, mean residual 0".6.

* Finding Charts

* Magnitudes Graph

        m1 = 12.0 + 5 log d + 10.0 log r

---------------------------------------------------------------------

The orbital elements are published on M.P.E.C. 2022-A21.
The charts are made with StellaNavigator Ver.10 (AstroArts).
The magnitudes graphs are made with Comet for Windows.

---------------------------------------------------------------------

Copyright(C) Seiichi Yoshida (comet@aerith.net). All rights reserved.